Wind_Speed
8 9 9 8 8 8 9 8 8 9 9 9 10 10 10 10 11 12 12 12 13 13 14 14 15 16 16 17 17 18 19 19 20 21 22 23 24 25
9 9 9 9 10 10 10 10 10 10 10 10 10 10 11 11 12 13 13 14 14 15 15 16 17 17 17 18 19 20 21 22 23 24 24 25 25 26
10 10 10 10 11 11 11 10 10 10 10 10 11 11 11 12 13 14 15 16 16 17 17 18 18 19 19 20 21 22 23 24 25 25 25 26 26 27
11 11 11 11 11 11 12 12 11 12 12 12 12 12 13 14 15 15 16 16 16 17 18 19 19 20 21 22 23 23 25 25 26 27 27 28 27 27
12 12 12 13 12 12 13 13 13 13 13 13 13 14 14 15 16 16 16 17 17 18 19 20 21 22 23 24 24 25 26 27 27 28 28 28 27 27
13 13 13 14 14 14 14 14 14 14 14 14 14 15 16 16 17 17 18 19 19 20 21 21 22 23 24 25 25 26 27 28 28 28 28 28 27 27
14 14 14 15 15 16 16 16 17 16 16 16 16 16 17 17 18 19 20 20 21 21 22 23 23 24 25 26 26 27 28 29 28 28 28 28 28 28
15 15 16 17 17 18 18 18 18 18 18 18 19 19 18 19 20 20 21 22 22 23 23 24 24 25 26 27 27 28 29 29 29 29 29 28 28 28
16 17 17 18 19 19 19 19 19 19 19 20 20 20 20 21 21 22 22 23 24 24 24 25 25 26 27 28 29 30 30 29 30 29 29 30 29 29
18 18 19 19 20 20 20 20 21 21 22 22 22 22 22 22 23 23 23 23 24 24 25 26 27 28 29 29 30 30 30 30 30 30 30 30 30 30
19 20 20 20 20 20 21 21 21 22 23 24 24 24 24 24 24 24 24 24 24 25 26 26 27 28 29 29 29 29 30 29 29 30 30 30 30 31
21 21 21 21 21 22 22 23 22 22 23 24 24 25 25 25 25 25 25 25 26 26 27 27 28 29 29 29 29 30 30 30 30 30 31 30 31 31
22 22 21 22 22 23 23 24 24 24 23 23 24 25 25 26 26 26 27 27 27 27 28 28 29 29 30 30 29 30 30 30 31 31 32 32 32 32
23 23 22 23 23 24 24 25 25 25 25 25 25 25 25 26 27 28 28 29 29 29 29 29 30 30 30 30 30 29 30 30 31 32 33 33 33 33
24 24 24 25 24 24 25 26 26 26 25 25 25 25 25 26 27 28 29 30 30 30 30 30 30 31 31 31 31 30 30 31 32 33 33 33 33 33
25 26 26 26 26 26 26 27 27 27 26 26 26 26 26 27 27 29 30 30 30 30 31 31 31 31 31 31 31 31 32 32 32 32 33 33 34 34
27 27 27 28 28 28 28 28 28 28 27 27 28 28 28 28 28 29 30 31 31 31 31 32 31 31 32 31 31 32 32 32 33 33 33 32 33 33
29 29 29 29 29 29 29 29 29 29 29 29 29 29 29 29 29 30 31 31 31 31 32 32 32 32 32 32 33 33 32 33 34 33 33 33 33 34
31 31 30 31 31 31 30 30 30 31 31 31 30 30 30 30 31 31 31 32 33 33 33 33 33 34 33 33 33 33 33 34 34 34 34 33 33 34
32 32 32 32 32 31 31 31 31 32 32 32 32 31 32 32 32 33 33 33 34 34 34 34 34 34 34 33 33 33 34 35 35 34 34 34 34 34
33 33 33 33 33 33 33 33 33 33 32 33 33 33 33 33 34 34 35 35 35 35 35 34 35 36 35 35 35 35 35 36 36 35 35 34 34 34
33 33 33 34 34 35 35 35 35 34 34 34 34 35 35 35 35 35 36 36 36 36 35 35 36 36 36 36 35 35 35 36 36 36 36 36 36 35
33 33 33 33 34 35 36 36 37 36 36 36 36 36 37 37 37 38 38 37 37 37 36 37 37 37 38 38 37 36 36 36 36 36 36 37 37 37
Wind_Direction
290 289 284 277 277 276 280 281 284 283 283 283 283 283 285 289 293 295 294 292 293 294 295 295 296 297 298 298 298 300 302 303 303 301 300 299 297 295
291 290 286 281 275 276 277 278 282 283 286 286 286 285 287 290 291 291 290 291 292 294 295 296 296 297 298 298 299 299 300 301 302 302 301 299 298 296
288 288 290 289 281 279 278 280 283 283 285 285 286 288 292 293 293 291 291 290 290 291 293 295 296 297 299 300 300 301 301 301 302 302 301 300 298 296
286 285 288 288 286 285 282 283 283 284 285 285 287 290 292 293 294 293 293 293 293 293 295 296 297 297 298 300 301 302 303 303 302 302 300 299 297 296
280 279 282 283 283 286 286 286 285 285 284 284 285 288 290 292 294 294 293 294 294 295 296 297 298 298 299 301 301 302 303 304 304 303 302 300 298 297
277 277 279 280 279 281 284 285 285 285 285 286 287 287 289 292 294 295 295 295 296 297 298 298 298 299 300 301 302 302 304 305 305 304 304 303 300 299
277 276 278 280 280 280 282 284 283 283 283 285 288 291 291 292 294 295 295 296 297 298 298 298 299 300 300 301 302 303 305 305 305 305 305 304 302 301
279 278 278 278 280 281 283 283 282 282 283 285 287 289 291 295 296 297 297 297 296 296 297 298 299 300 302 303 304 304 304 305 304 304 304 303 303 302
280 279 278 278 280 282 283 282 281 281 283 286 288 289 291 293 296 298 297 297 297 296 296 298 299 300 301 303 304 305 305 305 304 304 304 303 301 301
282 280 279 280 281 282 282 281 282 282 283 284 286 288 289 291 294 296 297 297 297 298 299 301 301 302 302 302 303 305 305 305 305 305 304 304 302 301
280 281 280 281 281 282 284 284 284 284 283 284 285 287 288 289 292 294 296 297 299 299 299 302 303 304 305 304 303 304 306 306 306 306 305 304 303 301
281 281 280 280 281 283 285 285 286 286 287 286 285 286 288 289 291 293 295 296 298 298 299 302 304 304 306 306 305 304 304 305 306 306 307 307 305 303
279 279 278 279 281 284 285 289 288 287 288 287 288 287 287 289 291 292 294 296 297 298 299 300 302 304 305 306 305 305 304 303 304 305 306 306 306 304
278 279 279 278 280 283 287 288 289 287 286 286 287 287 288 289 290 292 293 295 297 298 299 299 301 302 304 304 305 305 304 304 305 305 306 306 306 305
278 279 279 280 281 283 286 287 287 288 287 285 286 287 288 289 290 291 293 294 296 297 298 299 299 300 301 303 304 305 305 305 305 306 308 308 307 306
279 279 279 280 282 284 285 285 286 287 288 288 286 286 287 288 290 292 293 294 296 297 297 298 298 298 299 301 304 304 305 306 306 306 307 308 307 307
279 279 280 280 282 283 284 285 285 286 287 288 289 288 289 290 292 294 294 294 296 297 298 298 298 298 298 299 302 304 304 304 305 306 307 307 307 307
281 281 281 281 282 282 283 284 284 285 285 286 287 288 289 289 291 293 294 295 296 296 296 297 297 297 297 299 300 301 303 304 304 304 305 305 306 305
281 281 281 281 281 282 281 282 283 284 284 285 286 287 288 289 291 292 294 295 296 296 296 296 296 295 295 297 298 299 300 301 302 303 304 305 305 306
279 280 280 280 281 281 281 281 282 283 284 284 285 286 287 288 290 291 293 294 295 296 296 295 295 294 294 295 297 298 298 299 300 302 303 304 305 306
279 280 280 280 280 281 281 281 281 281 282 283 284 284 285 287 288 290 291 292 293 295 295 296 295 294 295 296 296 296 296 297 299 301 302 302 304 305
280 281 282 280 279 280 280 281 280 280 281 282 283 283 284 286 288 289 291 292 292 293 294 295 295 294 294 295 296 296 296 296 297 299 301 301 303 303
280 281 281 282 281 281 281 281 280 280 280 282 283 283 284 285 287 288 290 291 292 292 292 293 294 294 294 294 295 295 295 296 296 298 298 299 301 302
Height
5836 5835 5835 5834 5834 5833 5833 5833 5833 5832 5831 5830 5829 5829 5828 5828 5827 5826 5826 5825 5824 5823 5822 5821 5820 5818 5817 5815 5814 5812 5811 5809 5807 5805 5804 5802 5800 5798
5834 5833 5832 5832 5831 5831 5830 5830 5830 5829 5828 5828 5827 5826 5826 5825 5824 5823 5822 5821 5820 5819 5818 5817 5816 5814 5813 5811 5809 5808 5806 5804 5802 5799 5797 5795 5793 5791
5831 5831 5830 5829 5829 5828 5828 5827 5827 5826 5826 5825 5824 5823 5823 5822 5821 5820 5819 5817 5816 5815 5814 5813 5811 5810 5808 5806 5804 5802 5800 5798 5795 5793 5790 5788 5785 5783
5829 5828 5828 5827 5826 5826 5825 5824 5824 5823 5823 5822 5821 5820 5819 5818 5817 5816 5814 5813 5812 5810 5809 5808 5806 5805 5803 5801 5799 5796 5794 5791 5788 5786 5783 5780 5777 5775
5826 5825 5824 5824 5823 5823 5822 5821 5820 5820 5819 5818 5817 5816 5815 5814 5813 5811 5810 5808 5807 5806 5804 5803 5801 5799 5797 5795 5793 5790 5787 5785 5782 5778 5775 5772 5769 5766
5822 5821 5821 5820 5820 5819 5819 5818 5817 5816 5815 5814 5813 5812 5811 5810 5808 5807 5805 5804 5802 5801 5799 5797 5795 5793 5791 5789 5786 5783 5780 5777 5774 5770 5767 5764 5761 5758
5817 5817 5816 5816 5815 5815 5814 5813 5812 5812 5811 5810 5809 5808 5806 5805 5804 5802 5800 5798 5797 5795 5793 5791 5789 5787 5784 5782 5779 5776 5773 5769 5766 5762 5759 5756 5753 5750
5813 5813 5812 5812 5811 5810 5809 5809 5808 5807 5806 5805 5804 5803 5801 5800 5798 5796 5795 5793 5791 5790 5787 5785 5782 5780 5777 5775 5771 5768 5765 5761 5758 5754 5751 5748 5745 5742
5808 5808 5807 5807 5806 5805 5804 5803 5802 5801 5801 5800 5799 5797 5796 5794 5793 5791 5789 5787 5785 5783 5780 5778 5775 5773 5770 5767 5764 5760 5757 5753 5750 5746 5743 5740 5736 5734
5803 5803 5802 5801 5800 5799 5798 5797 5796 5795 5794 5794 5793 5791 5790 5788 5786 5785 5782 5780 5778 5776 5773 5771 5768 5766 5762 5759 5755 5752 5748 5745 5741 5738 5734 5731 5728 5725
5798 5797 5796 5795 5794 5793 5792 5791 5790 5789 5787 5787 5786 5784 5783 5781 5779 5778 5776 5774 5772 5769 5766 5764 5761 5758 5755 5751 5747 5744 5740 5737 5733 5729 5726 5722 5719 5716
5792 5791 5789 5789 5788 5787 5786 5784 5783 5782 5781 5779 5778 5777 5776 5774 5772 5771 5769 5766 5764 5762 5759 5756 5754 5750 5748 5744 5740 5736 5732 5729 5725 5721 5717 5713 5710 5707
5785 5784 5783 5782 5781 5780 5779 5777 5776 5775 5773 5772 5771 5770 5768 5767 5765 5763 5761 5759 5756 5754 5752 5749 5746 5742 5739 5736 5732 5728 5724 5721 5717 5713 5709 5705 5702 5698
5778 5777 5776 5775 5774 5773 5772 5770 5769 5767 5766 5765 5763 5762 5760 5759 5757 5755 5753 5751 5748 5746 5743 5740 5737 5734 5731 5727 5724 5720 5716 5712 5709 5705 5701 5697 5693 5689
5770 5769 5768 5767 5766 5765 5764 5763 5761 5760 5758 5757 5756 5754 5752 5751 5749 5747 5744 5742 5740 5737 5734 5731 5728 5725 5722 5719 5715 5712 5708 5705 5701 5697 5693 5688 5684 5680
5762 5761 5760 5760 5759 5758 5756 5755 5753 5752 5750 5749 5748 5746 5744 5742 5740 5738 5736 5734 5731 5728 5725 5722 5719 5716 5713 5710 5706 5703 5699 5696 5692 5688 5684 5679 5675 5670
5754 5753 5752 5751 5750 5749 5748 5747 5745 5744 5742 5741 5739 5737 5736 5734 5732 5729 5727 5725 5722 5720 5717 5713 5710 5707 5703 5701 5698 5694 5690 5686 5683 5679 5675 5671 5666 5662
5745 5744 5743 5742 5741 5740 5739 5738 5736 5735 5733 5732 5730 5728 5727 5725 5723 5720 5718 5715 5713 5710 5708 5705 5702 5698 5695 5692 5689 5685 5681 5678 5674 5669 5666 5662 5658 5653
5735 5734 5734 5733 5732 5731 5730 5728 5727 5726 5724 5722 5721 5719 5717 5715 5713 5711 5709 5706 5703 5701 5698 5695 5692 5689 5686 5683 5679 5675 5672 5668 5664 5660 5656 5652 5649 5644
5725 5724 5724 5723 5722 5721 5720 5718 5717 5716 5714 5713 5711 5709 5708 5706 5704 5702 5699 5696 5694 5691 5688 5685 5681 5678 5675 5673 5670 5666 5661 5658 5654 5651 5647 5643 5639 5635
5715 5714 5713 5712 5711 5710 5709 5708 5707 5705 5704 5702 5701 5699 5698 5696 5693 5691 5689 5686 5683 5680 5678 5675 5671 5668 5665 5662 5659 5656 5652 5648 5644 5640 5637 5633 5629 5625
5704 5703 5702 5701 5700 5699 5698 5697 5696 5694 5693 5692 5690 5689 5687 5685 5683 5680 5678 5675 5672 5670 5667 5664 5660 5657 5654 5651 5648 5645 5642 5638 5634 5630 5626 5623 5619 5615
5693 5692 5691 5690 5689 5688 5686 5685 5684 5683 5682 5680 5679 5677 5675 5673 5671 5669 5666 5664 5661 5659 5656 5653 5650 5646 5643 5640 5637 5634 5631 5627 5624 5620 5616 5612 5608 5605